IZ0ANE-13 Weather Reports


Display with metric or nautical units.
time (UTC)temp
F
wind
direction
speed
MPH
gust
MPH
rain 1hr
in
rain 24hr
in
rain mn
in
humidity
%
barometer
mb
20260507150024 78 215 2.0 4.0 0.00 0.00 0.00 39 1010.6
20260507144024 78 169 1.0 4.0 0.00 0.00 0.00 39 1010.6
20260507142003 78 159 4.0 7.0 0.00 0.00 0.00 39 1010.7
20260507140024 78 193 2.0 4.0 0.00 0.00 0.00 40 1010.9
20260507134024 79 189 2.0 4.0 0.00 0.00 0.00 36 1011.2
20260507132024 79 204 3.0 8.0 0.00 0.00 0.00 37 1011.3
20260507130003 80 155 1.0 3.0 0.00 0.00 0.00 39 1011.4
20260507124003 78 123 1.0 4.0 0.00 0.00 0.00 41 1011.9
20260507122003 78 252 1.0 4.0 0.00 0.00 0.00 42 1012.0
20260507120004 76 247 2.0 6.0 0.00 0.00 0.00 43 1012.3
20260507114003 78 234 1.0 2.0 0.00 0.00 0.00 47 1012.3
20260507112024 77 187 3.0 6.0 0.00 0.00 0.00 46 1012.4
20260507110003 74 170 5.0 8.0 0.00 0.00 0.00 52 1012.6
20260507104003 76 146 3.0 7.0 0.00 0.00 0.00 49 1013.0
20260507102024 76 256 1.0 3.0 0.00 0.00 0.00 49 1013.1
20260507100003 74 212 2.0 4.0 0.00 0.00 0.00 52 1013.3
20260507094003 73 150 2.0 3.0 0.00 0.00 0.00 53 1013.0
20260507092003 71 127 1.0 6.0 0.00 0.00 0.00 56 1013.0
20260507090004 70 76 1.0 4.0 0.00 0.00 0.00 59 1013.4
20260507084003 69 165 2.0 4.0 0.00 0.00 0.00 61 1013.8
20260507082003 68 132 2.0 3.0 0.00 0.00 0.00 66 1013.2
20260507080003 67 136 3.0 6.0 0.00 0.00 0.00 66 1013.6
20260507074003 67 186 3.0 7.0 0.00 0.00 0.00 68 1013.8
20260507072003 67 173 2.0 7.0 0.00 0.00 0.00 69 1013.9
20260507070007 65 194 3.0 4.0 0.00 0.00 0.00 72 1013.5
20260507064003 63 146 2.0 4.0 0.00 0.00 0.00 79 1013.6
20260507062003 62 159 2.0 2.0 0.00 0.00 0.00 80 1014.0
20260507060003 62 100 1.0 3.0 0.00 0.00 0.00 79 1014.1
20260507054003 60 340 1.0 2.0 0.00 0.00 0.00 85 1014.0
20260507052003 59 82 1.0 3.0 0.00 0.00 0.00 87 1014.0
20260507050003 58 169 1.0 1.0 0.00 0.00 0.00 90 1013.8
20260507044003 58 148 1.0 1.0 0.00 0.00 0.00 89 1013.7
20260507042003 58 0 0.0 0.0 0.00 0.00 0.00 88 1013.4
20260507040003 59 210 1.0 2.0 0.00 0.00 0.00 87 1013.1
20260507034003 60 223 1.0 2.0 0.00 0.00 0.00 85 1013.2
20260507032003 60 354 0.0 2.0 0.00 0.00 0.00 85 1013.1
20260507030003 60 59 1.0 3.0 0.00 0.00 0.00 86 1013.1
20260507024003 60 359 1.0 3.0 0.00 0.00 0.00 87 1013.4
20260507022003 60 87 1.0 1.0 0.00 0.00 0.00 86 1013.6
20260507014003 60 183 1.0 2.0 0.00 0.00 0.00 85 1013.5
20260507012024 61 18 1.0 1.0 0.00 0.00 0.00 79 1013.6
20260507010003 61 18 1.0 1.0 0.00 0.00 0.00 79 1013.3
20260507004003 61 13 2.0 3.0 0.00 0.00 0.00 79 1013.4
20260507002003 61 5 2.0 3.0 0.00 0.00 0.00 78 1013.4
20260507000003 61 3 2.0 3.0 0.00 0.00 0.00 78 1013.4
20260506234003 61 23 1.0 2.0 0.00 0.00 0.00 79 1013.7
20260506232003 62 0 0.0 0.0 0.00 0.00 0.00 77 1013.9
20260506230024 61 341 1.0 4.0 0.00 0.00 0.00 77 1013.9
20260506224003 62 43 1.0 2.0 0.00 0.00 0.00 78 1013.9
20260506222003 62 91 1.0 2.0 0.00 0.00 0.00 79 1014.2
20260506220024 62 0 0.0 0.0 0.00 0.00 0.00 76 1014.5
20260506214003 62 55 1.0 1.0 0.00 0.00 0.00 76 1014.2
20260506212003 63 26 1.0 3.0 0.00 0.00 0.00 74 1014.3
20260506210003 63 354 3.0 6.0 0.00 0.00 0.00 72 1014.3
20260506204003 64 349 3.0 6.0 0.00 0.00 0.00 68 1014.8
20260506202003 64 354 2.0 4.0 0.00 0.00 0.00 67 1015.1
20260506200003 65 181 0.0 1.0 0.00 0.00 0.00 62 1014.9
20260506194003 65 163 0.0 1.0 0.00 0.00 0.00 61 1014.9
20260506192024 66 200 1.0 3.0 0.00 0.00 0.00 61 1014.3
20260506190003 65 282 0.0 2.0 0.00 0.00 0.00 62 1014.0
20260506184024 66 145 0.0 2.0 0.00 0.00 0.00 62 1013.6
20260506182003 66 193 0.0 2.0 0.00 0.00 0.00 62 1013.6
20260506180004 66 119 2.0 3.0 0.00 0.00 0.00 62 1013.3
20260506174003 67 241 1.0 1.0 0.00 0.00 0.00 61 1013.3
20260506172024 67 213 1.0 4.0 0.00 0.00 0.00 60 1013.0
20260506170003 67 195 2.0 3.0 0.00 0.00 0.00 59 1012.7
20260506164003 68 182 3.0 4.0 0.00 0.00 0.00 58 1012.9
20260506162003 69 140 3.0 6.0 0.00 0.00 0.00 55 1013.0
20260506160003 69 182 2.0 4.0 0.00 0.00 0.00 54 1013.1
20260506154003 70 186 3.0 6.0 0.00 0.00 0.00 54 1013.2
20260506152003 73 184 5.0 6.0 0.00 0.00 0.00 45 1012.8